START_TIME,STEP,MOV.,M15,t_acc.,M20,t_acc.
1979-07-04 15:00:44.690 ,1,0,0.,24.0,0.,24.0
1979-07-04 15:01:08.690 ,2,1,0.,24.0,0.,24.0
1979-07-04 15:01:32.690 ,2,0,0.,24.0,0.,24.0
1979-07-04 15:01:56.690 ,3,1,0.,24.0,0.,24.0
1979-07-04 15:02:20.690 ,3,0,0.,24.0,0.,24.0
1979-07-04 15:02:44.690 ,4,1,0.,24.0,0.,24.0
1979-07-04 15:03:08.690 ,4,0,0.,24.0,0.,24.0
1979-07-04 15:03:32.690 ,5,1,0.,24.0,0.,24.0
1979-07-04 15:03:56.690 ,5,0,0.,24.0,0.,24.0
1979-07-04 15:04:20.690 ,6,1,0.,24.0,0.,24.0
1979-07-04 15:04:44.690 ,6,0,0.,24.0,0.,24.0
1979-07-04 15:05:08.690 ,7,1,0.,24.0,0.,24.0
1979-07-04 15:05:32.690 ,7,0,0.,24.0,0.,24.0
1979-07-04 15:05:56.690 ,7,1,0.,24.0,0.,24.0
1979-07-04 15:06:20.690 ,7,0,0.,24.0,0.,24.0
1979-07-04 15:06:44.690 ,6,1,0.,24.0,0.,24.0
1979-07-04 15:07:08.690 ,6,0,0.,24.0,0.,24.0
1979-07-04 15:07:32.690 ,5,1,0.,24.0,0.,24.0
1979-07-04 15:07:56.690 ,5,0,0.,24.0,0.,24.0
1979-07-04 15:08:20.690 ,4,1,0.,24.0,0.,24.0
1979-07-04 15:08:44.690 ,4,0,0.,24.0,0.,24.0
1979-07-04 15:09:08.690 ,3,1,0.,24.0,0.,24.0
1979-07-04 15:09:32.690 ,3,0,0.,24.0,0.,24.0
1979-07-04 15:09:56.690 ,2,1,0.,24.0,0.,24.0
1979-07-04 15:10:20.690 ,2,0,0.,24.0,0.,24.0
1979-07-04 15:10:44.690 ,1,1,0.,24.0,0.,24.0
1979-07-04 15:11:08.690 ,1,0,0.,24.0,0.,24.0
1979-07-04 15:11:32.690 ,0,1,0.,24.0,0.,24.0
1979-07-04 15:11:56.690 ,0,0,0.,24.0,0.,24.0
1979-07-04 15:12:20.690 ,0,1,0.,24.0,0.,24.0
1979-07-04 15:12:44.690 ,0,0,0.,24.0,0.,24.0
1979-07-04 15:13:08.690 ,1,1,0.,24.0,0.,24.0
1979-07-04 15:13:32.690 ,1,0,0.,24.0,0.,24.0
1979-07-04 15:13:56.690 ,2,1,0.,24.0,0.,24.0
1979-07-04 15:14:20.690 ,2,0,0.,24.0,0.,24.0
1979-07-04 15:14:44.690 ,3,1,0.,24.0,0.,24.0
1979-07-04 15:15:08.690 ,3,0,0.,24.0,0.,24.0
1979-07-04 15:15:32.690 ,4,1,0.,24.0,0.,24.0
1979-07-04 15:15:56.690 ,4,0,0.,24.0,0.,24.0
1979-07-04 15:16:20.690 ,5,1,0.,24.0,0.,24.0
1979-07-04 15:16:44.690 ,5,0,0.,24.0,0.,24.0
1979-07-04 15:17:08.690 ,6,1,0.,24.0,0.,24.0
1979-07-04 15:17:32.690 ,6,0,0.,24.0,0.,24.0
1979-07-04 15:17:56.690 ,7,1,0.,24.0,0.,24.0
1979-07-04 15:18:20.690 ,7,0,0.,24.0,0.,24.0
1979-07-04 15:18:44.690 ,7,1,0.,24.0,0.,24.0
1979-07-04 15:19:08.690 ,7,0,0.,24.0,0.,24.0
1979-07-04 15:19:32.690 ,6,1,0.,24.0,0.,24.0
1979-07-04 15:19:56.690 ,6,0,0.,24.0,0.,24.0
1979-07-04 15:20:20.690 ,5,1,0.,24.0,0.,24.0
1979-07-04 15:20:44.690 ,5,0,0.,24.0,0.,24.0
1979-07-04 15:21:08.690 ,4,1,0.,24.0,0.,24.0
1979-07-04 15:21:32.690 ,4,0,0.,24.0,0.,24.0
1979-07-04 15:21:56.690 ,3,1,0.,24.0,0.,24.0
1979-07-04 15:22:20.690 ,3,0,0.,24.0,0.,24.0
1979-07-04 15:22:44.690 ,2,1,0.,24.0,0.,24.0
1979-07-04 15:23:08.690 ,2,0,0.,24.0,0.,24.0
1979-07-04 15:23:32.690 ,1,1,0.,24.0,0.,24.0
1979-07-04 15:23:56.690 ,1,0,0.,24.0,0.,24.0
1979-07-04 15:24:20.690 ,0,1,0.,24.0,0.,24.0
1979-07-04 15:24:44.690 ,0,0,0.,24.0,0.,24.0
1979-07-04 15:25:08.690 ,0,1,0.,24.0,0.,24.0
1979-07-04 15:25:32.690 ,0,0,0.,24.0,0.,24.0
1979-07-04 15:25:56.690 ,1,1,0.,24.0,0.,24.0
1979-07-04 15:26:20.690 ,1,0,0.,24.0,0.,24.0
1979-07-04 15:26:44.690 ,2,1,0.,24.0,0.,24.0
1979-07-04 15:27:08.690 ,2,0,0.,24.0,0.,24.0
1979-07-04 15:27:32.690 ,3,1,0.,24.0,0.,24.0
1979-07-04 15:27:56.690 ,3,0,0.,24.0,0.,24.0
1979-07-04 15:28:20.690 ,4,1,0.,24.0,0.,24.0
1979-07-04 15:28:44.690 ,4,0,0.,24.0,0.,24.0
1979-07-04 15:29:08.690 ,5,1,0.,24.0,0.,24.0
1979-07-04 15:29:32.690 ,5,0,0.,24.0,0.,24.0
1979-07-04 15:29:56.690 ,6,1,0.,24.0,0.,24.0
1979-07-04 15:30:20.690 ,6,0,0.,24.0,0.,24.0
1979-07-04 15:30:44.690 ,7,0,0.,24.0,0.,24.0
1979-07-04 15:31:08.690 ,7,0,0.,24.0,0.,24.0
1979-07-04 15:31:32.690 ,3,1,0.,24.0,0.,24.0
1979-07-04 15:31:56.690 ,0,1,0.,24.0,0.,24.0
1979-07-04 15:32:20.690 ,4,1,0.,24.0,0.,24.0
1979-07-04 15:32:44.690 ,7,1,0.,24.0,0.,24.0
1979-07-04 15:33:08.690 ,3,1,1.,24.0,0.,24.0
1979-07-04 15:33:32.690 ,0,1,0.,24.0,0.,24.0
1979-07-04 15:33:56.690 ,4,1,0.,24.0,0.,24.0
1979-07-04 15:34:20.690 ,7,1,0.,24.0,0.,24.0
1979-07-04 15:34:44.690 ,3,1,0.,24.0,0.,24.0
1979-07-04 15:35:08.690 ,0,1,0.,24.0,0.,24.0
1979-07-04 15:35:32.690 ,4,1,0.,24.0,0.,24.0
1979-07-04 15:35:56.690 ,7,1,0.,24.0,0.,24.0
1979-07-04 15:36:20.690 ,3,1,0.,24.0,0.,24.0
1979-07-04 15:36:44.690 ,0,1,0.,24.0,0.,24.0
1979-07-04 15:37:08.690 ,4,1,0.,24.0,0.,24.0
1979-07-04 15:37:32.690 ,7,1,0.,24.0,0.,24.0
1979-07-04 15:37:56.690 ,3,1,0.,24.0,0.,24.0
1979-07-04 15:38:20.690 ,0,1,0.,24.0,0.,24.0
1979-07-04 15:38:44.690 ,4,1,0.,24.0,0.,24.0
1979-07-04 15:39:08.690 ,7,1,0.,24.0,0.,24.0
1979-07-04 15:39:32.690 ,3,1,0.,24.0,0.,24.0
1979-07-04 15:39:56.690 ,0,1,0.,24.0,0.,24.0
1979-07-04 15:40:20.690 ,4,1,0.,24.0,0.,24.0
1979-07-04 15:40:44.690 ,7,1,0.,24.0,0.,24.0
1979-07-04 15:41:08.690 ,3,1,0.,24.0,0.,24.0
1979-07-04 15:41:32.690 ,0,0,0.,24.0,0.,24.0
1979-07-04 15:42:02.090 ,0,0,0.,24.0,0.,24.0
1979-07-04 15:42:20.690 ,0,0,0.,24.0,0.,24.0
1979-07-04 15:42:44.690 ,5,1,0.,24.0,0.,24.0
1979-07-04 15:43:08.690 ,5,0,0.,24.0,0.,24.0
1979-07-04 15:43:32.690 ,4,1,0.,24.0,0.,24.0
1979-07-04 15:43:56.690 ,4,0,0.,24.0,0.,24.0
1979-07-04 15:44:20.690 ,3,1,0.,24.0,0.,24.0
1979-07-04 15:44:44.690 ,3,0,0.,24.0,0.,24.0
1979-07-04 15:45:08.690 ,2,1,0.,24.0,0.,24.0
1979-07-04 15:45:32.690 ,2,0,0.,24.0,0.,24.0
1979-07-04 15:45:56.690 ,1,1,0.,24.0,0.,24.0
1979-07-04 15:46:20.690 ,1,0,0.,24.0,0.,24.0
1979-07-04 15:46:44.690 ,0,1,0.,24.0,0.,24.0
1979-07-04 15:47:08.690 ,0,0,0.,24.0,0.,24.0
1979-07-04 15:47:32.690 ,0,1,0.,24.0,0.,24.0
1979-07-04 15:47:56.690 ,0,0,0.,24.0,0.,24.0
1979-07-04 15:48:20.690 ,1,1,0.,24.0,0.,24.0
1979-07-04 15:48:44.690 ,1,0,0.,24.0,0.,24.0
1979-07-04 15:49:08.690 ,2,1,0.,24.0,0.,24.0
1979-07-04 15:49:32.690 ,2,0,0.,24.0,0.,24.0
1979-07-04 15:49:56.690 ,3,1,0.,24.0,0.,24.0
1979-07-04 15:50:20.690 ,3,0,0.,24.0,0.,24.0
1979-07-04 15:50:44.690 ,4,1,0.,24.0,0.,24.0
1979-07-04 15:51:08.690 ,4,0,0.,24.0,0.,24.0
1979-07-04 15:51:32.690 ,5,1,0.,24.0,0.,24.0
1979-07-04 15:51:56.690 ,5,0,0.,24.0,0.,24.0
1979-07-04 15:52:20.690 ,6,1,0.,24.0,0.,24.0
1979-07-04 15:52:44.690 ,6,0,0.,24.0,0.,24.0
1979-07-04 15:53:08.690 ,7,1,0.,24.0,0.,24.0
1979-07-04 15:53:32.690 ,7,0,0.,24.0,0.,24.0
1979-07-04 15:53:56.690 ,7,1,0.,24.0,0.,24.0
1979-07-04 15:54:20.690 ,7,0,0.,24.0,0.,24.0
1979-07-04 15:54:44.690 ,6,1,0.,24.0,0.,24.0
1979-07-04 15:55:08.690 ,6,0,0.,24.0,0.,24.0
1979-07-04 15:55:32.690 ,5,1,0.,24.0,0.,24.0
1979-07-04 15:55:56.690 ,5,0,0.,24.0,0.,24.0
1979-07-04 15:56:20.690 ,4,1,0.,24.0,0.,24.0
1979-07-04 15:56:44.690 ,4,0,0.,24.0,0.,24.0
1979-07-04 15:57:08.690 ,3,1,0.,24.0,0.,24.0
1979-07-04 15:57:32.690 ,3,0,0.,24.0,0.,24.0
1979-07-04 15:57:56.690 ,2,1,0.,24.0,0.,24.0
1979-07-04 15:58:20.690 ,2,0,0.,24.0,0.,24.0
1979-07-04 15:58:44.690 ,1,1,0.,24.0,0.,24.0
1979-07-04 15:59:08.690 ,1,0,0.,24.0,0.,24.0
1979-07-04 15:59:32.690 ,0,1,0.,24.0,0.,24.0
1979-07-04 15:59:56.690 ,0,0,0.,24.0,0.,24.0
1979-07-04 16:00:20.690 ,0,1,0.,24.0,0.,24.0
1979-07-04 16:00:44.690 ,0,0,0.,24.0,0.,24.0
1979-07-04 16:01:08.690 ,1,1,0.,24.0,0.,24.0
1979-07-04 16:01:32.690 ,1,0,0.,24.0,0.,24.0
1979-07-04 16:01:56.690 ,2,1,0.,24.0,0.,24.0
1979-07-04 16:02:20.690 ,2,0,0.,24.0,0.,24.0
1979-07-04 16:02:44.690 ,3,1,0.,24.0,0.,24.0
1979-07-04 16:03:08.690 ,3,0,0.,24.0,0.,24.0
1979-07-04 16:03:32.690 ,4,1,0.,24.0,0.,24.0
1979-07-04 16:03:56.690 ,0,0,,0,,0
1979-07-04 16:04:18.890 ,0,0,,0,,0
1979-07-04 16:04:20.690 ,5,1,0.,24.0,0.,24.0
1979-07-04 16:04:44.690 ,5,0,0.,24.0,0.,24.0
1979-07-04 16:05:08.690 ,6,1,0.,24.0,0.,24.0
1979-07-04 16:05:32.690 ,6,0,0.,24.0,0.,24.0
1979-07-04 16:05:56.690 ,7,1,0.,24.0,0.,24.0
1979-07-04 16:06:20.690 ,0,0,,0,,0
1979-07-04 16:06:46.490 ,7,1,0.,24.0,0.,24.0
1979-07-04 16:07:08.690 ,7,0,0.,24.0,0.,24.0
1979-07-04 16:07:32.690 ,6,1,0.,24.0,0.,24.0
1979-07-04 16:07:56.690 ,6,0,0.,24.0,0.,24.0
1979-07-04 16:08:20.690 ,5,1,0.,24.0,0.,24.0
1979-07-04 16:08:44.690 ,5,0,0.,24.0,0.,24.0
1979-07-04 16:09:08.690 ,4,1,0.,24.0,0.,24.0
1979-07-04 16:09:32.690 ,4,0,0.,24.0,0.,24.0
1979-07-04 16:09:56.690 ,3,1,0.,24.0,0.,24.0
1979-07-04 16:10:20.690 ,3,0,0.,24.0,0.,24.0
1979-07-04 16:10:44.690 ,2,1,0.,24.0,0.,24.0
1979-07-04 16:11:08.690 ,2,0,0.,24.0,0.,24.0
1979-07-04 16:11:32.690 ,1,1,0.,24.0,0.,24.0
1979-07-04 16:11:56.690 ,1,0,0.,24.0,0.,24.0
1979-07-04 16:12:20.690 ,0,1,0.,24.0,0.,24.0
1979-07-04 16:12:44.690 ,0,0,0.,24.0,0.,24.0
1979-07-04 16:13:08.690 ,0,1,0.,24.0,0.,24.0
1979-07-04 16:13:32.690 ,0,0,0.,24.0,0.,24.0
1979-07-04 16:13:56.690 ,1,1,0.,24.0,0.,24.0
1979-07-04 16:14:20.690 ,1,0,0.,24.0,0.,24.0
1979-07-04 16:14:44.690 ,2,1,0.,24.0,0.,24.0
1979-07-04 16:15:08.690 ,2,0,0.,24.0,0.,24.0
1979-07-04 16:15:32.690 ,3,1,0.,24.0,0.,24.0
1979-07-04 16:15:56.690 ,3,0,0.,24.0,0.,24.0
1979-07-04 16:16:20.690 ,4,1,0.,24.0,0.,24.0
1979-07-04 16:16:44.690 ,4,0,0.,24.0,0.,24.0
1979-07-04 16:17:08.690 ,5,1,0.,24.0,0.,24.0
1979-07-04 16:17:32.690 ,5,0,0.,24.0,0.,24.0
1979-07-04 16:17:56.690 ,6,1,0.,24.0,0.,24.0
1979-07-04 16:18:20.690 ,6,0,0.,24.0,0.,24.0
1979-07-04 16:18:44.690 ,7,0,0.,24.0,0.,24.0
1979-07-04 16:19:08.690 ,7,0,0.,24.0,0.,24.0
1979-07-04 16:19:32.690 ,3,1,0.,24.0,0.,24.0
1979-07-04 16:19:56.690 ,0,1,0.,24.0,0.,24.0
1979-07-04 16:20:20.690 ,4,1,0.,24.0,0.,24.0
1979-07-04 16:20:44.690 ,7,1,0.,24.0,0.,24.0
1979-07-04 16:21:08.690 ,3,1,0.,24.0,0.,24.0
1979-07-04 16:21:32.690 ,0,1,0.,24.0,0.,24.0
1979-07-04 16:21:56.690 ,4,1,0.,24.0,0.,24.0
1979-07-04 16:22:20.690 ,7,1,0.,24.0,0.,24.0
1979-07-04 16:22:44.690 ,3,1,0.,24.0,0.,24.0
1979-07-04 16:23:08.690 ,0,1,0.,24.0,0.,24.0
1979-07-04 16:23:32.690 ,4,1,0.,24.0,0.,24.0
1979-07-04 16:23:56.690 ,7,1,0.,24.0,0.,24.0
1979-07-04 16:24:20.690 ,3,1,0.,24.0,0.,24.0
1979-07-04 16:24:44.690 ,0,1,0.,24.0,0.,24.0
1979-07-04 16:25:08.690 ,4,1,0.,24.0,0.,24.0
1979-07-04 16:25:32.690 ,7,1,0.,24.0,0.,24.0
1979-07-04 16:25:56.690 ,3,1,0.,24.0,0.,24.0
1979-07-04 16:26:20.690 ,0,1,0.,24.0,0.,24.0
1979-07-04 16:26:44.690 ,4,1,0.,24.0,0.,24.0
1979-07-04 16:27:08.690 ,7,1,0.,24.0,0.,24.0
1979-07-04 16:27:32.690 ,3,1,0.,24.0,0.,24.0
1979-07-04 16:27:56.690 ,0,1,0.,24.0,0.,24.0
1979-07-04 16:28:20.690 ,4,1,0.,24.0,0.,24.0
1979-07-04 16:28:44.690 ,7,1,0.,24.0,0.,24.0
1979-07-04 16:29:08.690 ,3,1,0.,24.0,0.,24.0
1979-07-04 16:29:32.690 ,0,1,0.,24.0,0.,24.0
1979-07-04 16:29:56.690 ,0,0,0.,24.0,0.,24.0
1979-07-04 16:30:20.690 ,0,0,0.,24.0,0.,24.0
1979-07-04 16:30:44.690 ,5,1,0.,24.0,0.,24.0
1979-07-04 16:31:08.690 ,5,0,0.,24.0,0.,24.0
1979-07-04 16:31:32.690 ,4,1,0.,24.0,0.,24.0
1979-07-04 16:31:56.690 ,4,0,0.,24.0,0.,24.0
1979-07-04 16:32:20.690 ,3,1,0.,24.0,0.,24.0
1979-07-04 16:32:44.690 ,3,0,0.,24.0,0.,24.0
1979-07-04 16:33:08.690 ,2,1,0.,24.0,0.,24.0
1979-07-04 16:33:32.690 ,2,0,0.,24.0,0.,24.0
1979-07-04 16:33:56.690 ,1,1,0.,24.0,0.,24.0
1979-07-04 16:34:20.690 ,1,0,0.,24.0,0.,24.0
1979-07-04 16:34:44.690 ,0,1,0.,24.0,0.,24.0
1979-07-04 16:35:08.690 ,0,0,0.,24.0,0.,24.0
1979-07-04 16:35:32.690 ,0,1,0.,24.0,0.,24.0
1979-07-04 16:35:56.690 ,0,0,0.,24.0,0.,24.0
1979-07-04 16:36:20.690 ,1,1,0.,24.0,0.,24.0
1979-07-04 16:36:44.690 ,1,0,0.,24.0,0.,24.0
1979-07-04 16:37:08.690 ,2,1,0.,24.0,0.,24.0
1979-07-04 16:37:32.690 ,2,0,0.,24.0,0.,24.0
1979-07-04 16:37:56.690 ,3,1,0.,24.0,0.,24.0
1979-07-04 16:38:20.690 ,3,0,0.,24.0,0.,24.0
1979-07-04 16:38:44.690 ,4,1,0.,24.0,0.,24.0
1979-07-04 16:39:08.690 ,4,0,0.,24.0,0.,24.0
1979-07-04 16:39:32.690 ,5,1,0.,24.0,0.,24.0
1979-07-04 16:39:56.690 ,5,0,0.,24.0,0.,24.0
1979-07-04 16:40:20.690 ,6,1,0.,24.0,0.,24.0
1979-07-04 16:40:44.690 ,6,0,0.,24.0,0.,24.0
1979-07-04 16:41:08.690 ,7,1,0.,24.0,0.,24.0
1979-07-04 16:41:32.690 ,7,0,0.,24.0,0.,24.0
1979-07-04 16:41:56.690 ,7,1,0.,24.0,0.,24.0
1979-07-04 16:42:20.690 ,7,0,0.,24.0,0.,24.0
1979-07-04 16:42:44.690 ,6,1,0.,24.0,0.,24.0
1979-07-04 16:43:08.690 ,6,0,0.,24.0,0.,24.0
1979-07-04 16:43:32.690 ,5,1,0.,24.0,0.,24.0
1979-07-04 16:43:56.690 ,5,0,0.,24.0,0.,24.0
1979-07-04 16:44:20.690 ,4,1,0.,24.0,0.,24.0
1979-07-04 16:44:44.690 ,4,0,0.,24.0,0.,24.0
1979-07-04 16:45:08.690 ,3,1,0.,24.0,0.,24.0
1979-07-04 16:45:32.690 ,3,0,0.,24.0,0.,24.0
1979-07-04 16:45:56.690 ,2,1,0.,24.0,0.,24.0
1979-07-04 16:46:20.690 ,2,0,0.,24.0,0.,24.0
1979-07-04 16:46:44.690 ,1,1,0.,24.0,0.,24.0
1979-07-04 16:47:08.690 ,1,0,0.,24.0,0.,24.0
1979-07-04 16:47:32.690 ,0,1,0.,24.0,0.,24.0
1979-07-04 16:47:56.690 ,0,0,0.,24.0,0.,24.0
1979-07-04 16:48:20.690 ,0,1,0.,24.0,0.,24.0
1979-07-04 16:48:44.690 ,0,0,0.,24.0,0.,24.0
1979-07-04 16:49:08.690 ,1,1,0.,24.0,0.,24.0
1979-07-04 16:49:32.690 ,1,0,0.,24.0,0.,24.0
1979-07-04 16:49:56.690 ,2,1,0.,24.0,0.,24.0
1979-07-04 16:50:20.690 ,2,0,0.,24.0,0.,24.0
1979-07-04 16:50:44.690 ,3,1,0.,24.0,0.,24.0
1979-07-04 16:51:08.690 ,3,0,0.,24.0,0.,24.0
1979-07-04 16:51:32.690 ,4,1,0.,24.0,0.,24.0
1979-07-04 16:51:56.690 ,4,0,0.,24.0,0.,24.0
1979-07-04 16:52:20.690 ,5,1,0.,24.0,0.,24.0
1979-07-04 16:52:44.690 ,5,0,0.,24.0,0.,24.0
1979-07-04 16:53:08.690 ,6,1,0.,24.0,0.,24.0
1979-07-04 16:53:32.690 ,6,0,0.,24.0,0.,24.0
1979-07-04 16:53:56.690 ,7,1,0.,24.0,0.,24.0
1979-07-04 16:54:20.690 ,7,0,0.,24.0,0.,24.0
1979-07-04 16:54:44.690 ,7,1,0.,24.0,0.,24.0
1979-07-04 16:55:08.690 ,7,0,0.,24.0,0.,24.0
1979-07-04 16:55:32.690 ,6,1,0.,24.0,0.,24.0
1979-07-04 16:55:56.690 ,6,0,0.,24.0,0.,24.0
1979-07-04 16:56:20.690 ,5,1,0.,24.0,0.,24.0
1979-07-04 16:56:44.690 ,5,0,0.,24.0,0.,24.0
1979-07-04 16:57:08.690 ,4,1,0.,24.0,0.,24.0
1979-07-04 16:57:32.690 ,4,0,0.,24.0,0.,24.0
1979-07-04 16:57:56.690 ,3,1,0.,24.0,0.,24.0
1979-07-04 16:58:20.690 ,3,0,0.,24.0,0.,24.0
1979-07-04 16:58:44.690 ,2,1,0.,24.0,0.,24.0
1979-07-04 16:59:08.690 ,2,0,0.,24.0,0.,24.0
1979-07-04 16:59:32.690 ,1,1,0.,24.0,0.,24.0
1979-07-04 16:59:56.690 ,1,0,0.,24.0,0.,24.0
1979-07-04 17:00:20.690 ,0,1,0.,24.0,0.,24.0
1979-07-04 17:00:44.690 ,0,0,0.,24.0,0.,24.0
1979-07-04 17:01:08.690 ,0,1,0.,24.0,0.,24.0
1979-07-04 17:01:32.690 ,0,0,0.,24.0,0.,24.0
1979-07-04 17:01:56.690 ,1,1,0.,24.0,0.,24.0
1979-07-04 17:02:20.690 ,1,0,0.,24.0,0.,24.0
1979-07-04 17:02:44.690 ,2,1,0.,24.0,0.,24.0
1979-07-04 17:03:08.690 ,2,0,0.,24.0,0.,24.0
1979-07-04 17:03:32.690 ,3,1,0.,24.0,0.,24.0
1979-07-04 17:03:56.690 ,3,0,0.,24.0,0.,24.0
1979-07-04 17:04:20.690 ,4,1,0.,24.0,0.,24.0
1979-07-04 17:04:44.690 ,4,0,0.,24.0,0.,24.0
1979-07-04 17:05:08.690 ,5,1,0.,24.0,0.,24.0
1979-07-04 17:05:32.690 ,5,0,0.,24.0,0.,24.0
1979-07-04 17:05:56.690 ,6,1,0.,24.0,0.,24.0
1979-07-04 17:06:20.690 ,6,0,0.,24.0,0.,24.0
1979-07-04 17:06:44.690 ,7,0,0.,24.0,0.,24.0
1979-07-04 17:07:08.690 ,7,0,0.,24.0,0.,24.0
1979-07-04 17:07:32.690 ,3,1,0.,24.0,0.,24.0
1979-07-04 17:07:56.690 ,0,1,0.,24.0,0.,24.0
1979-07-04 17:08:20.690 ,4,1,0.,24.0,0.,24.0
1979-07-04 17:08:44.690 ,7,1,0.,24.0,0.,24.0
1979-07-04 17:09:08.690 ,3,1,0.,24.0,0.,24.0
1979-07-04 17:09:32.690 ,0,1,0.,24.0,0.,24.0
1979-07-04 17:09:56.690 ,4,1,0.,24.0,0.,24.0
1979-07-04 17:10:20.690 ,7,1,0.,24.0,0.,24.0
1979-07-04 17:10:44.690 ,3,1,0.,24.0,0.,24.0
1979-07-04 17:11:08.690 ,0,1,0.,24.0,0.,24.0
1979-07-04 17:11:32.690 ,4,1,0.,24.0,0.,24.0
1979-07-04 17:11:56.690 ,7,1,0.,24.0,0.,24.0
1979-07-04 17:12:20.690 ,3,1,0.,24.0,0.,24.0
1979-07-04 17:12:44.690 ,0,1,0.,24.0,0.,24.0
1979-07-04 17:13:08.690 ,4,1,0.,24.0,0.,24.0
1979-07-04 17:13:32.690 ,7,1,0.,24.0,0.,24.0
1979-07-04 17:13:56.690 ,3,1,0.,24.0,0.,24.0
1979-07-04 17:14:20.690 ,0,1,0.,24.0,0.,24.0
1979-07-04 17:14:44.690 ,4,1,0.,24.0,0.,24.0
1979-07-04 17:15:08.690 ,7,1,0.,24.0,0.,24.0
1979-07-04 17:15:32.690 ,3,1,0.,24.0,0.,24.0
1979-07-04 17:15:56.690 ,0,1,0.,24.0,0.,24.0
1979-07-04 17:16:20.690 ,4,1,0.,24.0,0.,24.0
1979-07-04 17:16:44.690 ,7,1,0.,24.0,0.,24.0
1979-07-04 17:17:08.690 ,3,1,0.,24.0,0.,24.0
1979-07-04 17:17:32.690 ,0,1,0.,24.0,0.,24.0
1979-07-04 17:17:56.690 ,0,0,0.,24.0,0.,24.0
1979-07-04 17:18:20.690 ,0,0,0.,24.0,0.,24.0
1979-07-04 17:18:44.690 ,5,1,0.,24.0,0.,24.0
1979-07-04 17:19:08.690 ,5,0,0.,24.0,0.,24.0
1979-07-04 17:19:32.690 ,4,1,0.,24.0,0.,24.0
1979-07-04 17:19:56.690 ,4,0,0.,24.0,0.,24.0
1979-07-04 17:20:20.690 ,3,1,0.,24.0,0.,24.0
1979-07-04 17:20:44.690 ,3,0,0.,24.0,0.,24.0
1979-07-04 17:21:08.690 ,2,1,0.,24.0,0.,24.0
1979-07-04 17:21:32.690 ,2,0,0.,24.0,0.,24.0
1979-07-04 17:21:56.690 ,1,1,0.,24.0,0.,24.0
1979-07-04 17:22:20.690 ,1,0,0.,24.0,0.,24.0
1979-07-04 17:22:44.690 ,0,1,0.,24.0,0.,24.0
1979-07-04 17:23:08.690 ,0,0,0.,24.0,0.,24.0
1979-07-04 17:23:32.690 ,0,1,0.,24.0,0.,24.0
1979-07-04 17:23:56.690 ,0,0,0.,24.0,0.,24.0
1979-07-04 17:24:20.690 ,1,1,0.,24.0,0.,24.0
1979-07-04 17:24:44.690 ,1,0,0.,24.0,0.,24.0
1979-07-04 17:25:08.690 ,2,1,0.,24.0,0.,24.0
1979-07-04 17:25:32.690 ,2,0,0.,24.0,0.,24.0
1979-07-04 17:25:56.690 ,3,1,0.,24.0,0.,24.0
1979-07-04 17:26:20.690 ,3,0,0.,24.0,0.,24.0
1979-07-04 17:26:44.690 ,4,1,0.,24.0,0.,24.0
1979-07-04 17:27:08.690 ,4,0,0.,24.0,0.,24.0
1979-07-04 17:27:32.690 ,5,1,0.,24.0,0.,24.0
1979-07-04 17:27:56.690 ,5,0,0.,24.0,0.,24.0
1979-07-04 17:28:20.690 ,6,1,0.,24.0,0.,24.0
1979-07-04 17:28:44.690 ,6,0,0.,24.0,0.,24.0
1979-07-04 17:29:08.690 ,7,1,0.,24.0,0.,24.0
1979-07-04 17:29:32.690 ,7,0,0.,24.0,0.,24.0
1979-07-04 17:29:56.690 ,7,1,0.,24.0,0.,24.0
1979-07-04 17:30:20.690 ,7,0,0.,24.0,0.,24.0
1979-07-04 17:30:44.690 ,6,1,0.,24.0,0.,24.0
1979-07-04 17:31:08.690 ,6,0,0.,24.0,0.,24.0
1979-07-04 17:31:32.690 ,5,1,0.,24.0,0.,24.0
1979-07-04 17:31:56.690 ,5,0,0.,24.0,0.,24.0
1979-07-04 17:32:20.690 ,4,1,0.,24.0,0.,24.0
1979-07-04 17:32:44.690 ,4,0,0.,24.0,0.,24.0
1979-07-04 17:33:08.690 ,3,1,0.,24.0,0.,24.0
1979-07-04 17:33:32.690 ,3,0,0.,24.0,0.,24.0
1979-07-04 17:33:56.690 ,2,1,0.,24.0,0.,24.0
1979-07-04 17:34:20.690 ,2,0,0.,24.0,0.,24.0
1979-07-04 17:34:44.690 ,1,1,0.,24.0,0.,24.0
1979-07-04 17:35:08.690 ,1,0,0.,24.0,0.,24.0
1979-07-04 17:35:32.690 ,0,1,0.,24.0,0.,24.0
1979-07-04 17:35:56.690 ,0,0,0.,24.0,0.,24.0
1979-07-04 17:36:20.690 ,0,1,0.,24.0,0.,24.0
1979-07-04 17:36:44.690 ,0,0,0.,24.0,0.,24.0
1979-07-04 17:37:08.690 ,1,1,0.,24.0,0.,24.0
1979-07-04 17:37:32.690 ,1,0,0.,24.0,0.,24.0
1979-07-04 17:37:56.690 ,2,1,0.,24.0,0.,24.0
1979-07-04 17:38:20.690 ,2,0,0.,24.0,0.,24.0
1979-07-04 17:38:44.690 ,3,1,0.,24.0,0.,24.0
1979-07-04 17:39:08.690 ,3,0,0.,24.0,0.,24.0
1979-07-04 17:39:32.690 ,4,1,0.,24.0,0.,24.0
1979-07-04 17:39:56.690 ,4,0,0.,24.0,0.,24.0
1979-07-04 17:40:20.690 ,5,1,0.,24.0,0.,24.0
1979-07-04 17:40:44.690 ,5,0,0.,24.0,0.,24.0
1979-07-04 17:41:08.690 ,6,1,0.,24.0,0.,24.0
1979-07-04 17:41:32.690 ,6,0,0.,24.0,0.,24.0
1979-07-04 17:41:56.690 ,7,1,0.,24.0,0.,24.0
1979-07-04 17:42:20.690 ,7,0,0.,24.0,0.,24.0
1979-07-04 17:42:44.690 ,7,1,0.,24.0,0.,24.0
1979-07-04 17:43:08.690 ,7,0,0.,24.0,0.,24.0
1979-07-04 17:43:32.690 ,6,1,0.,24.0,0.,24.0
1979-07-04 17:43:56.690 ,6,0,0.,24.0,0.,24.0
1979-07-04 17:44:20.690 ,5,1,0.,24.0,0.,24.0
1979-07-04 17:44:44.690 ,5,0,0.,24.0,0.,24.0
1979-07-04 17:45:08.690 ,4,1,0.,24.0,0.,24.0
1979-07-04 17:45:32.690 ,4,0,0.,24.0,0.,24.0
1979-07-04 17:45:56.690 ,3,1,0.,24.0,0.,24.0
1979-07-04 17:46:20.690 ,3,0,0.,24.0,0.,24.0
1979-07-04 17:46:44.690 ,2,1,0.,24.0,0.,24.0
1979-07-04 17:47:08.690 ,2,0,0.,24.0,0.,24.0
1979-07-04 17:47:32.690 ,1,1,0.,24.0,0.,24.0
1979-07-04 17:47:56.690 ,1,0,0.,24.0,0.,24.0
1979-07-04 17:48:20.690 ,0,1,0.,24.0,0.,24.0
1979-07-04 17:48:44.690 ,0,0,0.,24.0,0.,24.0
1979-07-04 17:49:08.690 ,0,1,0.,24.0,0.,24.0
1979-07-04 17:49:32.690 ,0,0,0.,24.0,0.,24.0
1979-07-04 17:49:56.690 ,1,1,0.,24.0,0.,24.0
1979-07-04 17:50:20.690 ,1,0,0.,24.0,0.,24.0
1979-07-04 17:50:44.690 ,2,1,0.,24.0,0.,24.0
1979-07-04 17:51:08.690 ,2,0,0.,24.0,0.,24.0
1979-07-04 17:51:32.690 ,3,1,0.,24.0,0.,24.0
1979-07-04 17:51:56.690 ,3,0,0.,24.0,0.,24.0
1979-07-04 17:52:20.690 ,4,1,0.,24.0,0.,24.0
1979-07-04 17:52:44.690 ,4,0,0.,24.0,0.,24.0
1979-07-04 17:53:08.690 ,5,1,0.,24.0,0.,24.0
1979-07-04 17:53:32.690 ,5,0,0.,24.0,0.,24.0
1979-07-04 17:53:56.690 ,6,1,0.,24.0,0.,24.0
1979-07-04 17:54:20.690 ,6,0,0.,24.0,0.,24.0
1979-07-04 17:54:44.690 ,7,0,0.,24.0,0.,24.0
1979-07-04 17:55:08.690 ,7,0,0.,24.0,0.,24.0
1979-07-04 17:55:32.690 ,3,1,0.,24.0,0.,24.0
1979-07-04 17:55:56.690 ,0,1,0.,24.0,0.,24.0
1979-07-04 17:56:20.690 ,4,1,0.,24.0,0.,24.0
1979-07-04 17:56:44.690 ,7,1,0.,24.0,0.,24.0
1979-07-04 17:57:08.690 ,3,1,0.,24.0,0.,24.0
1979-07-04 17:57:32.690 ,0,1,0.,24.0,0.,24.0
1979-07-04 17:57:56.690 ,4,1,0.,24.0,0.,24.0
1979-07-04 17:58:20.690 ,7,1,0.,24.0,0.,24.0
1979-07-04 17:58:44.690 ,3,1,0.,24.0,0.,24.0
1979-07-04 17:59:08.690 ,0,1,0.,24.0,0.,24.0
1979-07-04 17:59:32.690 ,4,1,0.,24.0,0.,24.0
1979-07-04 17:59:56.690 ,7,1,0.,24.0,0.,24.0
1979-07-04 18:00:20.690 ,3,1,0.,24.0,0.,24.0
